Location: Recife
(8.0585°S, 34.8848°W)
Time: 21:02:41
(UTC-03:00)

S-56A Canister/Altair - Pass Details

Date: 20 April 2026
Orbit: 633 x 2484 km, 38.9° (Epoch: 16 May)

Event Time Altitude Azimuth Distance (km) Brightness Sun altitude
Rises 01:35:32 0° 282° (WNW) 3,578 - -56.1°
Reaches altitude 10° 01:41:32 10° 325° (NW) 3,125 - -54.6°
Maximum altitude 01:42:15 10° 331° (NNW) 3,175 - -54.5°
Drops below altitude 10° 01:42:58 10° 336° (NNW) 3,247 - -54.3°
Exits shadow 01:48:22 - 6° (N) 4,251 11.4 -53.0°
Sets 01:50:57 0° 15° (NNE) 4,891 11.8 -52.3°
